Home   Weather   Sacramento   Past weeks

Flag for USA Past Weather in Sacramento, California, USA — Yesterday and Last 2 Weeks

Now
67 °F

Sunny.


Feels Like: 67 °F
Forecast: 47 / 73 °F
Wind: 13 mph from Southwest

Location: Sacramento Executive Airport

Current Time: Sep 30, 2016 at 6:33:45 PM

Latest Report: Sep 30, 2016 at 5:53 PM


Visibility: 10 mi

Pressure: 29.98 "Hg

Humidity: 42%

Dew Point: 43 °F

Location of SacramentoLocation

Past Weather in Sacramento — Graph

°F

Sacramento Temperature Yesterday

Maximum temperature yesterday: 83 °F (at 2:53 PM)
Minimum temperature yesterday: 55 °F (at 5:53 AM)
Average temperature yesterday: 66 °F

High & Low Weather Summary for the Past Weeks

 TemperatureHumidityPressure
High97 °F (Sep 18, 3:53 PM)89% (Sep 30, 6:53 AM)30.13 "Hg (Sep 30, 6:53 AM)
Low50 °F (Sep 22, 5:53 AM)12% (Sep 23, 4:53 PM)29.76 "Hg (Sep 27, 5:53 PM)
Average71 °F48%29.94 "Hg
* Reported Sep 15 4:53 PM — Sep 30 4:53 PM, Sacramento, Weather by CustomWeather, © 2016

Note: Actual official high and low records may vary slightly from our data, if they occured in-between our weather recording intervals... More about our weather records

Advertising

Sacramento Weather History for the Previous 24 Hours

Scroll right to see more
 ConditionsComfort  
Time TempWeatherWind HumidityBarometerVisibility
4:53 PM
Fri, Sep 30
70 °FSunny.14 mph38%29.98 "Hg10 mi
3:53 PM73 °FSunny.15 mph29%29.99 "Hg10 mi
2:53 PM74 °FSunny.13 mph28%30.00 "Hg10 mi
1:53 PM72 °FSunny.15 mph31%30.02 "Hg10 mi
12:53 PM70 °FSunny.15 mph39%30.04 "Hg10 mi
11:53 AM68 °FSunny.12 mph45%30.06 "Hg10 mi
10:53 AM65 °FSunny.7 mph56%30.07 "Hg10 mi
9:53 AM61 °FSunny.8 mph65%30.07 "Hg10 mi
8:53 AM57 °FSunny.8 mph74%30.06 "Hg10 mi
7:53 AM53 °FSunny.7 mph86%30.05 "Hg10 mi
6:53 AM52 °FClear.6 mph89%30.04 "Hg10 mi
5:53 AM53 °FClear.8 mph86%30.03 "Hg10 mi
4:53 AM53 °FClear.7 mph86%30.03 "Hg10 mi
3:53 AM54 °FClear.7 mph83%30.02 "Hg10 mi
2:53 AM54 °FClear.7 mph83%30.02 "Hg10 mi
1:53 AM55 °FClear.5 mph80%30.02 "Hg10 mi
12:53 AM57 °FClear.7 mph72%30.01 "Hg10 mi
11:53 PM
Thu, Sep 29
58 °FClear.3 mph65%30.01 "Hg10 mi
10:53 PM60 °FClear.8 mph60%30.01 "Hg10 mi
9:53 PM62 °FClear.7 mph58%30.00 "Hg10 mi
8:53 PM64 °FClear.9 mph56%29.99 "Hg10 mi
7:53 PM67 °FClear.7 mph51%29.98 "Hg10 mi
6:53 PM72 °FClear.8 mph38%29.97 "Hg10 mi
Weather by CustomWeather, © 2016

See weather overviewHow to use our weather pages